TimeCDT,TemperatureF,Dew PointF,Humidity,Sea Level PressureIn,VisibilityMPH,Wind Direction,Wind SpeedMPH,Gust SpeedMPH,PrecipitationIn,Events,Conditions,WindDirDegrees,DateUTC
12:53 AM,57.9,55.9,93,29.96,10.0,South,3.5,-,N/A,,Clear,180,2012-10-03 05:53:00
1:53 AM,59.0,55.9,90,29.97,10.0,Calm,Calm,-,N/A,,Clear,0,2012-10-03 06:53:00
2:53 AM,57.9,55.9,93,29.97,10.0,Calm,Calm,-,N/A,,Clear,0,2012-10-03 07:53:00
3:53 AM,57.9,55.9,93,29.97,10.0,Calm,Calm,-,N/A,,Clear,0,2012-10-03 08:53:00
4:53 AM,57.0,54.0,89,29.99,10.0,Calm,Calm,-,N/A,,Clear,0,2012-10-03 09:53:00
5:53 AM,55.9,54.0,93,30.01,10.0,Calm,Calm,-,N/A,,Clear,0,2012-10-03 10:53:00
6:53 AM,54.0,54.0,100,30.03,10.0,Calm,Calm,-,N/A,,Clear,0,2012-10-03 11:53:00
7:53 AM,55.9,55.9,100,30.04,9.0,Calm,Calm,-,N/A,,Clear,0,2012-10-03 12:53:00
8:53 AM,63.0,57.0,81,30.05,10.0,SSE,5.8,-,N/A,,Clear,160,2012-10-03 13:53:00
9:53 AM,68.0,57.0,68,30.06,10.0,South,5.8,-,N/A,,Clear,190,2012-10-03 14:53:00
10:53 AM,72.0,57.0,59,30.07,10.0,South,8.1,-,N/A,,Clear,190,2012-10-03 15:53:00
11:53 AM,73.0,55.0,53,30.06,10.0,South,11.5,-,N/A,,Clear,190,2012-10-03 16:53:00
12:53 PM,73.9,55.9,53,30.05,10.0,South,4.6,-,N/A,,Clear,190,2012-10-03 17:53:00
1:53 PM,75.0,55.0,50,30.04,10.0,South,6.9,-,N/A,,Clear,190,2012-10-03 18:53:00
2:53 PM,75.2,55.4,50,30.03,10.0,SSW,4.6,-,N/A,,Clear,200,2012-10-03 19:53:00
3:53 PM,75.0,55.0,50,30.03,10.0,SW,3.5,-,N/A,,Clear,230,2012-10-03 20:53:00
4:53 PM,75.0,55.9,51,30.03,10.0,South,3.5,-,N/A,,Clear,180,2012-10-03 21:53:00
5:53 PM,75.0,57.0,53,30.03,10.0,SSW,3.5,-,N/A,,Clear,200,2012-10-03 22:53:00
6:53 PM,69.1,62.1,78,30.04,10.0,Calm,Calm,-,N/A,,Clear,0,2012-10-03 23:53:00
7:53 PM,66.0,61.0,84,30.06,10.0,Calm,Calm,-,N/A,,Clear,0,2012-10-04 00:53:00
8:53 PM,62.1,60.1,93,30.08,10.0,Calm,Calm,-,N/A,,Clear,0,2012-10-04 01:53:00
9:53 PM,62.1,61.0,96,30.09,10.0,Calm,Calm,-,N/A,,Clear,0,2012-10-04 02:53:00
10:35 PM,60.8,60.8,100,30.11,1.8,Calm,Calm,-,N/A,,Clear,0,2012-10-04 03:35:00
10:45 PM,60.8,59.0,94,30.11,3.0,Calm,Calm,-,N/A,,Clear,0,2012-10-04 03:45:00
10:53 PM,60.1,59.0,96,30.10,6.0,Calm,Calm,-,N/A,,Clear,0,2012-10-04 03:53:00
11:53 PM,60.1,59.0,96,30.11,10.0,Calm,Calm,-,N/A,,Clear,0,2012-10-04 04:53:00